St. Thomas, VI

2:25 PM AST on November 21, 2017 (GMT -0400)
King

Weather History for TIST - March, 2014

Change the Weather History Date:

Friday, March 21, 2014

  Actual Average Record
Temperature  
Mean Temperature 80 °F 80 °F  
Max Temperature 85 °F 86 °F 94 °F (1994)
Min Temperature 74 °F 73 °F 65 °F (1972)
Degree Days  
Heating Degree Days 0 0  
Month to date heating degree days 0 0  
Since 1 July heating degree days 0 0  
Cooling Degree Days 15 15  
Month to date cooling degree days 284 295  
Year to date cooling degree days 1106 1109  
Growing Degree Days 28 (Base 50)    
Moisture  
Dew Point 72 °F    
Average Humidity 78    
Maximum Humidity 87    
Minimum Humidity 69    
Precipitation  
Precipitation 0.00 in 0.04 in 0.67 in (2001)
Month to date precipitation 1.66 0.92  
Year to date precipitation 4.24 4.73  
Sea Level Pressure  
Sea Level Pressure 30.02 in    
Wind  
Wind Speed 10 mph (ESE)    
Max Wind Speed 17 mph    
Max Gust Speed 22 mph    
Visibility 10 miles    
Events      
T = Trace of Precipitation, MM = Missing Value Source: NWS Daily Summary

Daily Weather History Graph

Daily Weather History Graph

Search for Another Location

Airport or City:

Trip Planner

Search our weather history database for the weather conditions in past years. The results will help you decide how hot, cold, wet, or windy it might be!

Date:

Astronomy

Mar. 21, 2014 Rise Set
Actual Time 6:23 AM AST 6:31 PM AST
Civil Twilight 6:01 AM AST 6:52 PM AST
Nautical Twilight 5:36 AM AST 7:18 PM AST
Astronomical Twilight 5:10 AM AST 7:43 PM AST
Moon 11:08 PM AST 9:48 AM AST
Length of Visible Light 12h 51m
Length of Day
12h 07m
Waning Gibbous, 75% of the Moon is Illuminated
Mar 21
Waning Gibbous
Mar 23
Last Quarter
Mar 30
New
Apr 7
First Quarter
Apr 15
Full

Hourly Weather History & Observations

Time (AST) Temp. Heat Index Dew Point Humidity Pressure Visibility Wind Dir Wind Speed Gust Speed Precip Events Conditions
12:53 AM 75.0 °F - 71.1 °F 87% 30.01 in 10.0 mi East 6.9 mph - N/A   Partly Cloudy
1:53 AM 75.0 °F - 71.1 °F 87% 29.99 in 10.0 mi East 5.8 mph - N/A   Partly Cloudy
2:53 AM 75.0 °F - 71.1 °F 87% 29.97 in 10.0 mi East 6.9 mph - N/A   Mostly Cloudy
3:53 AM 75.0 °F - 70.0 °F 84% 29.96 in 10.0 mi East 8.1 mph - N/A   Partly Cloudy
4:53 AM 75.0 °F - 70.0 °F 84% 29.97 in 10.0 mi East 6.9 mph - N/A   Clear
5:53 AM 75.0 °F - 70.0 °F 84% 29.98 in 10.0 mi East 8.1 mph - N/A   Partly Cloudy
6:53 AM 75.0 °F - 70.0 °F 84% 30.00 in 10.0 mi East 5.8 mph - N/A   Clear
7:53 AM 80.1 °F 83.2 °F 70.0 °F 71% 30.02 in 10.0 mi SE 11.5 mph - N/A   Partly Cloudy
8:53 AM 81.0 °F 84.9 °F 71.1 °F 72% 30.04 in 10.0 mi SE 11.5 mph - N/A   Clear
9:53 AM 82.0 °F 86.7 °F 72.0 °F 71% 30.05 in 10.0 mi SE 11.5 mph - N/A   Clear
10:53 AM 82.9 °F 88.0 °F 72.0 °F 69% 30.06 in 10.0 mi SE 12.7 mph - N/A   Clear
11:53 AM 84.0 °F 90.2 °F 73.0 °F 69% 30.05 in 10.0 mi SE 11.5 mph - N/A   Clear
12:53 PM 84.0 °F 91.2 °F 73.9 °F 72% 30.03 in 10.0 mi SSE 15.0 mph - N/A   Partly Cloudy
1:53 PM 84.0 °F 90.2 °F 73.0 °F 69% 30.02 in 10.0 mi SSE 15.0 mph - N/A   Partly Cloudy
2:53 PM 84.0 °F 91.2 °F 73.9 °F 72% 30.01 in 10.0 mi SE 11.5 mph - N/A   Partly Cloudy
3:53 PM 82.9 °F 89.4 °F 73.9 °F 74% 30.01 in 10.0 mi SSE 13.8 mph - N/A   Partly Cloudy
4:53 PM 82.0 °F 87.9 °F 73.9 °F 76% 30.01 in 10.0 mi SSE 11.5 mph - N/A   Scattered Clouds
5:53 PM 81.0 °F 85.8 °F 73.0 °F 77% 30.01 in 10.0 mi SE 11.5 mph - N/A   Clear
6:53 PM 80.1 °F 84.5 °F 73.9 °F 81% 30.02 in 10.0 mi SE 10.4 mph - N/A   Clear
7:53 PM 80.1 °F 84.2 °F 73.0 °F 79% 30.03 in 10.0 mi ESE 10.4 mph - N/A   Partly Cloudy
8:53 PM 80.1 °F 84.2 °F 73.0 °F 79% 30.05 in 10.0 mi SE 8.1 mph - N/A   Clear
9:53 PM 79.0 °F - 73.0 °F 82% 30.07 in 10.0 mi SE 9.2 mph - N/A   Clear
11:53 PM 79.0 °F - 73.0 °F 82% 30.06 in 10.0 mi SE 10.4 mph - N/A   Partly Cloudy